Date,TemperatureHighF,TemperatureAvgF,TemperatureLowF,DewpointHighF,DewpointAvgF,DewpointLowF,HumidityHigh,HumidityAvg,HumidityLow,PressureMaxIn,PressureMinIn,WindSpeedMaxMPH,WindSpeedAvgMPH,GustSpeedMaxMPH,PrecipitationSumIn
2013-1-1,36.6,29.8,24.4,28.1,24.4,20.1,91,80,64,30.38,30.12,20,6,20,0.00
2013-1-2,45.5,31.3,18.6,28.5,23.6,16.5,92,75,44,30.43,30.28,15,3,16,0.00
2013-1-3,46.0,32.4,23.4,27.8,23.0,20.6,91,71,38,30.56,30.42,14,3,15,0.00
2013-1-4,44.3,36.0,27.6,32.2,28.0,22.2,87,73,54,30.52,30.33,15,4,16,0.00
2013-1-5,53.6,41.6,32.1,32.6,27.9,19.0,88,61,29,30.39,30.19,18,6,20,0.00
2013-1-6,56.2,39.3,26.8,30.0,24.7,22.5,85,59,30,30.49,30.34,10,3,10,0.00
2013-1-7,51.7,38.4,26.1,30.9,25.6,20.2,84,62,38,30.34,30.09,16,4,16,0.00
2013-1-8,52.8,44.5,34.0,43.1,37.0,29.8,88,75,63,30.18,30.01,12,4,12,0.00
2013-1-9,49.2,44.2,41.6,47.5,40.8,35.5,94,88,75,30.28,30.03,27,11,31,0.47
2013-1-10,54.6,48.5,46.1,50.5,46.4,43.9,95,92,82,30.03,29.82,16,6,17,0.17
2013-1-11,70.5,55.0,42.4,51.6,45.7,34.8,92,73,48,29.85,29.65,25,9,25,0.00
2013-1-12,52.4,38.9,26.4,34.6,25.9,17.5,79,60,45,30.14,29.81,30,12,31,0.00
2013-1-13,34.3,27.0,20.3,21.6,15.6,12.0,84,63,42,30.40,30.13,22,8,25,0.00
2013-1-14,37.8,27.3,18.1,18.2,14.6,11.1,87,61,35,30.46,30.31,18,5,18,0.00
2013-1-15,27.3,26.1,23.0,21.1,19.3,17.8,81,75,69,30.35,30.30,11,4,13,0.00
2013-1-16,52.5,40.0,19.8,31.6,26.0,14.8,87,60,29,30.32,30.19,17,4,17,0.00
2013-1-17,56.7,42.5,32.4,34.2,31.1,27.5,83,66,39,30.57,30.32,15,4,15,0.00
2013-1-18,62.1,45.3,29.5,35.2,31.7,26.1,88,62,35,30.51,30.17,20,6,23,0.00
2013-1-19,63.6,47.7,35.2,37.8,34.3,29.8,83,62,36,30.24,30.09,13,4,15,0.00
2013-1-20,65.8,44.8,27.1,37.5,32.1,24.0,90,65,31,30.24,30.08,17,2,18,0.00
2013-1-21,45.9,35.6,26.1,34.0,18.7,11.8,76,51,33,30.44,30.22,29,8,30,0.00
2013-1-22,64.3,43.0,20.8,42.4,30.3,17.5,87,64,38,30.32,30.14,19,4,21,0.00
2013-1-23,69.1,48.4,31.1,49.2,39.9,29.3,94,75,46,30.24,30.06,17,2,17,0.00
2013-1-24,43.4,38.4,34.3,38.7,33.9,29.9,94,84,71,30.25,30.10,17,5,18,0.00
2013-1-25,51.9,38.9,28.3,34.9,30.5,25.2,90,73,48,30.30,30.13,15,4,16,0.00
2013-1-26,58.2,43.1,27.0,45.1,35.0,25.2,93,75,48,30.26,30.01,15,3,17,0.00
2013-1-27,78.3,63.3,49.9,57.6,53.2,45.2,92,72,43,30.01,29.73,28,12,28,0.00
2013-1-28,80.7,65.6,53.5,62.7,53.8,48.2,91,68,36,29.86,29.65,25,9,28,0.00
2013-1-29,67.0,58.1,39.8,61.5,42.0,25.4,89,59,29,29.73,29.47,40,10,40,0.00
2013-1-30,50.3,40.1,30.0,32.0,22.5,14.2,75,52,24,30.12,29.73,27,10,29,0.00
2013-1-31,65.6,42.0,25.9,31.6,22.8,15.6,77,50,19,30.39,30.07,32,6,32,0.00
2013-2-1,53.9,37.1,22.6,28.6,21.7,14.5,78,55,35,30.44,30.12,17,5,19,0.00
2013-2-2,64.3,45.1,29.7,36.1,28.6,25.1,84,56,25,30.36,30.14,20,4,20,0.00
2013-2-3,68.5,50.2,29.8,34.5,26.8,18.6,81,47,15,30.34,29.88,23,6,26,0.00
2013-2-4,68.3,56.9,40.1,49.9,37.2,24.7,80,51,21,29.93,29.77,27,7,27,0.00
2013-2-5,68.7,49.4,29.1,52.3,35.8,24.3,92,65,24,30.03,29.91,17,3,18,0.00
2013-2-6,74.0,60.6,51.8,56.7,52.6,49.8,93,77,46,30.01,29.72,21,6,21,0.00
2013-2-7,63.2,53.9,40.5,56.0,44.2,29.6,92,71,37,30.21,29.69,33,11,35,0.00
2013-2-8,57.7,42.3,26.7,33.4,26.3,17.4,91,58,21,30.31,30.09,14,4,16,0.00
2013-2-9,57.1,50.1,43.7,54.2,42.7,24.6,92,77,45,30.09,29.59,33,12,33,0.03
2013-2-10,64.1,50.7,36.5,44.2,25.8,19.6,68,40,18,30.03,29.70,21,7,23,0.00
2013-2-11,55.3,43.3,31.5,31.0,26.6,22.3,81,54,31,30.22,30.03,18,5,18,0.00
2013-2-12,45.4,37.9,32.8,38.1,34.8,31.1,95,89,61,30.15,29.93,26,8,26,0.83
2013-2-13,58.6,42.8,28.5,38.0,33.6,27.2,96,73,39,30.17,29.99,9,3,10,0.00
2013-2-14,63.6,45.6,28.8,40.6,33.6,27.0,93,68,30,30.24,29.99,35,8,37,0.00
2013-2-15,46.4,39.0,32.4,37.2,27.7,23.0,85,65,44,30.46,30.24,26,8,37,0.00
2013-2-16,58.5,40.5,27.1,38.0,29.7,24.7,94,69,34,30.45,30.09,16,4,19,0.00
2013-2-17,74.0,53.4,32.4,33.7,28.9,21.7,80,45,15,30.09,29.69,26,9,29,0.00
2013-2-18,59.8,51.9,37.0,46.4,33.8,24.6,82,52,28,30.14,29.60,31,11,31,0.00
2013-2-19,57.1,39.1,27.4,31.5,26.0,22.0,86,63,26,30.32,30.13,20,4,22,0.00
2013-2-20,39.9,38.0,35.3,38.3,36.4,33.7,94,94,93,29.86,29.74,29,14,29,0.38
2013-2-21,50.3,37.2,27.6,42.4,33.3,21.6,95,86,71,30.09,29.68,27,8,28,0.26
2013-2-22,42.3,31.7,23.0,28.4,23.0,18.1,86,71,52,30.22,30.06,15,5,16,0.00
2013-2-23,51.0,37.1,25.8,35.3,29.2,23.1,93,74,52,30.16,29.85,20,5,21,0.00
2013-2-24,68.0,50.7,36.6,46.2,39.0,31.5,94,66,43,29.85,29.55,30,10,37,0.11
2013-2-25,42.0,35.8,32.6,40.5,34.4,31.3,96,95,89,29.86,29.50,32,16,40,0.59
2013-2-26,50.7,38.6,29.5,36.0,31.3,26.4,90,76,54,29.97,29.84,24,8,26,0.00
2013-2-27,50.9,39.8,30.1,34.6,29.4,25.3,89,68,42,30.31,29.96,32,9,32,0.00
2013-2-28,55.9,40.4,26.7,32.0,27.1,22.4,92,64,28,30.36,30.23,21,5,24,0.00
2013-3-1,54.2,40.0,28.9,35.8,30.4,25.8,90,71,41,30.41,30.24,28,6,31,0.00
2013-3-2,66.0,44.4,25.6,39.6,32.3,23.5,93,66,34,30.47,30.17,12,4,15,0.00
2013-3-3,80.7,57.7,33.0,39.5,32.3,28.2,91,46,15,30.17,29.55,26,9,27,0.00
2013-3-4,78.3,62.8,45.5,44.6,36.4,26.5,69,40,22,30.08,29.51,43,12,43,0.00
2013-3-5,55.2,44.1,31.9,34.3,21.2,12.4,71,43,19,30.43,30.08,40,9,40,0.00
2013-3-6,56.9,42.2,26.3,26.9,23.8,21.6,84,52,27,30.47,30.14,18,6,19,0.00
2013-3-7,73.8,56.2,39.9,43.9,29.7,22.0,57,38,23,30.15,29.95,25,10,25,0.00
2013-3-8,64.5,59.4,54.2,58.7,52.9,43.9,87,79,57,30.00,29.79,29,13,30,0.00
2013-3-9,72.5,63.9,57.5,62.1,46.5,25.7,91,60,21,29.79,29.57,34,10,37,0.02
2013-3-10,57.1,44.3,33.8,38.4,27.6,20.2,67,53,34,30.14,29.71,39,14,39,0.00
2013-3-11,67.7,45.3,22.3,32.1,25.6,18.2,85,50,23,30.16,29.93,18,5,18,0.00
2013-3-12,60.9,49.7,40.0,39.2,31.9,25.0,82,52,33,30.35,29.92,26,10,29,0.00
2013-3-13,69.4,53.5,31.3,41.8,36.0,29.2,93,56,29,30.45,30.25,18,5,19,0.00
2013-3-14,80.3,61.2,38.7,46.0,40.5,34.3,87,50,26,30.26,30.03,19,7,19,0.00
2013-3-15,87.5,68.7,47.5,45.8,41.6,37.2,72,41,17,30.05,29.68,22,9,24,0.00
2013-3-16,78.3,65.3,51.5,53.9,45.2,39.7,65,49,33,29.74,29.61,34,10,34,0.00
2013-3-17,62.4,50.5,39.4,42.8,38.0,33.2,79,63,46,29.87,29.61,29,8,34,0.00
2013-3-18,63.1,52.6,41.4,41.2,36.1,26.8,90,57,27,30.00,29.58,25,8,31,0.00
2013-3-19,61.2,51.3,38.4,44.7,36.6,28.7,81,58,48,30.20,29.95,20,6,20,0.00
2013-3-20,64.4,51.0,34.7,40.1,33.0,26.3,90,56,25,30.36,29.94,15,4,17,0.00
2013-3-21,82.2,63.0,50.4,54.4,41.9,28.7,80,47,27,29.93,29.35,28,10,30,0.00
2013-3-22,57.2,45.0,39.5,48.9,38.3,35.9,92,78,66,29.88,29.46,31,11,35,0.00
2013-3-23,52.6,45.5,37.7,44.7,40.5,31.4,92,82,74,30.02,29.65,31,7,31,0.00
2013-3-24,48.5,39.2,29.6,31.3,21.6,13.7,80,53,27,30.29,30.00,32,13,32,0.00
2013-3-25,50.7,36.4,21.3,23.0,16.9,13.5,81,49,25,30.47,30.28,22,6,24,0.00
2013-3-26,61.8,44.5,19.9,24.8,19.6,15.2,85,42,19,30.51,30.18,21,7,23,0.00
2013-3-27,77.3,58.2,42.7,44.3,33.6,24.4,56,41,25,30.19,29.92,28,11,28,0.00
2013-3-28,78.8,64.2,51.2,53.8,48.9,43.4,79,59,38,30.05,29.91,24,10,26,0.00
2013-3-29,80.2,65.6,56.5,61.4,56.1,52.5,90,73,46,30.03,29.87,24,8,26,0.00
2013-3-30,83.2,68.1,52.1,61.1,57.0,49.8,93,70,43,29.93,29.77,15,4,17,0.00
2013-3-31,71.4,63.3,54.8,60.5,49.0,41.9,91,62,37,30.02,29.77,47,8,47,0.00
2013-4-1,79.0,60.1,44.3,55.6,47.0,39.8,86,65,38,30.04,29.86,24,7,27,0.06
2013-4-2,46.1,40.7,38.4,42.0,38.2,35.3,95,91,82,30.15,29.99,23,12,24,0.02
2013-4-3,40.6,38.7,37.4,39.2,37.4,36.1,95,95,93,30.26,30.12,17,8,19,0.19
2013-4-4,50.4,41.5,37.2,41.7,37.7,35.4,95,87,71,30.29,30.18,13,5,16,0.00
2013-4-5,69.5,51.2,31.8,49.0,41.7,30.5,95,73,43,30.26,29.86,23,6,27,0.00
2013-4-6,78.3,64.9,52.7,53.4,49.4,46.3,84,60,35,29.86,29.73,23,6,23,0.00
2013-4-7,85.5,69.1,55.3,63.6,58.8,50.8,91,72,41,29.77,29.48,30,10,32,0.00
2013-4-8,87.8,73.9,63.6,65.4,62.8,60.0,89,70,41,29.54,29.38,30,14,30,0.00
2013-4-9,84.3,61.5,32.9,64.4,52.4,29.1,95,73,41,29.91,29.44,38,15,39,0.08
2013-4-10,48.2,41.2,29.4,33.8,31.1,28.1,96,69,48,30.05,29.81,34,5,39,0.16
2013-4-11,62.6,44.7,30.6,40.9,31.5,23.0,88,63,31,30.06,29.76,16,4,16,0.00
2013-4-12,67.3,53.3,41.9,48.3,42.6,38.0,89,69,45,30.02,29.82,20,5,20,0.00
2013-4-13,76.7,63.0,51.3,49.8,45.1,40.7,76,55,29,29.91,29.61,22,10,23,0.00
2013-4-14,92.9,71.5,55.4,55.7,48.7,33.9,83,51,13,29.63,29.34,25,9,25,0.00
2013-4-15,79.2,65.6,51.6,57.1,48.5,40.1,84,56,35,29.67,29.44,21,7,21,0.00
2013-4-16,61.1,54.3,47.0,51.7,47.1,42.7,92,77,63,29.91,29.65,21,9,21,0.00
2013-4-17,81.9,60.4,47.7,71.5,57.0,45.5,94,89,69,29.82,29.39,34,7,37,0.64
2013-4-18,53.7,44.9,37.0,45.1,33.2,27.4,95,66,39,30.21,29.67,36,14,39,0.01
2013-4-19,69.2,49.7,29.9,35.7,27.4,20.7,81,47,17,30.31,30.05,18,6,20,0.00
2013-4-20,72.8,59.4,45.5,36.8,32.4,29.0,60,38,24,30.06,29.83,33,14,35,0.00
2013-4-21,73.8,61.4,49.9,52.0,45.9,33.3,79,58,41,30.07,29.93,23,9,25,0.00
2013-4-22,86.6,68.7,53.8,60.1,55.0,49.0,86,64,35,30.00,29.58,27,12,29,0.00
2013-4-23,72.4,42.5,35.7,57.1,35.2,28.3,92,76,57,30.34,29.61,33,14,38,0.00
2013-4-24,60.7,45.5,28.9,34.9,30.2,26.0,89,59,32,30.40,30.23,19,5,19,0.00
2013-4-25,72.3,55.8,33.4,42.2,33.9,27.2,90,49,20,30.34,30.01,22,5,22,0.00
2013-4-26,86.8,69.2,60.1,61.2,51.7,40.6,85,56,26,30.08,29.77,36,11,36,0.01
2013-4-27,79.2,64.6,53.5,55.7,51.6,46.7,92,66,33,30.12,29.94,25,7,25,0.00
2013-4-28,90.3,69.7,48.0,53.6,47.8,40.8,92,53,19,29.98,29.69,17,5,18,0.00
2013-4-29,92.1,76.5,58.5,59.6,47.9,35.6,75,42,14,29.77,29.58,29,10,29,0.00
2013-4-30,91.0,76.9,62.9,62.2,58.4,49.6,84,57,26,29.64,29.51,29,12,33,0.00
2013-5-1,86.5,69.1,45.3,65.6,56.7,37.9,84,66,43,30.12,29.58,44,13,44,0.00
2013-5-2,53.8,44.4,37.6,38.3,34.7,29.0,95,71,40,30.47,30.11,40,18,44,0.03
2013-5-3,71.0,45.6,0.0,32.2,22.0,0.0,74,33,15,30.46,29.97,24,5,26,0.00
2013-5-4,73.8,56.3,35.3,39.4,28.2,12.2,83,42,10,30.06,29.92,26,7,28,0.00
2013-5-5,72.3,59.3,39.6,48.3,44.6,36.1,88,60,39,30.21,30.03,17,6,18,0.00
2013-5-6,76.2,63.0,44.8,51.2,47.8,42.6,92,61,36,30.12,29.94,13,3,14,0.00
2013-5-7,86.6,71.3,53.9,51.6,48.1,44.7,83,48,24,30.01,29.77,23,7,25,0.00
2013-5-8,86.5,75.2,62.3,64.9,57.6,48.2,77,55,40,29.81,29.62,31,10,37,0.00
2013-5-9,84.3,69.6,60.5,65.0,61.1,53.9,92,76,42,29.88,29.71,19,6,22,0.02
2013-5-10,74.2,64.4,55.7,59.5,55.8,52.4,93,76,48,30.08,29.84,37,8,37,0.17
2013-5-11,81.8,66.0,49.6,58.2,50.8,41.0,93,64,25,30.21,30.08,24,6,26,0.00
2013-5-12,84.0,67.1,48.0,49.4,44.4,37.2,89,49,25,30.25,29.99,18,5,21,0.00
2013-5-13,93.5,77.4,58.0,48.9,43.8,35.6,66,35,14,30.09,29.94,24,8,27,0.00
2013-5-14,91.3,78.9,62.8,58.6,50.4,40.2,58,38,23,30.00,29.75,28,9,30,0.00
2013-5-15,86.3,73.3,65.8,66.2,60.6,48.2,89,67,35,29.83,29.61,23,8,30,0.04
2013-5-16,83.0,70.6,61.5,64.8,61.7,58.8,91,76,48,29.75,29.65,18,7,20,0.00
2013-5-17,93.6,76.9,65.8,74.5,68.5,62.5,91,77,49,29.75,29.62,27,7,28,0.00
2013-5-18,101.4,84.1,71.0,75.2,67.8,57.4,90,63,27,29.70,29.44,29,9,32,0.17
2013-5-19,99.8,86.4,75.0,69.7,50.4,24.5,76,39,8,29.56,29.41,29,11,33,0.00
2013-5-20,97.8,80.6,64.0,64.6,48.9,31.5,78,38,10,29.65,29.47,29,6,33,0.00
2013-5-21,78.7,69.5,55.3,64.4,53.3,45.8,93,58,32,29.87,29.61,29,9,30,0.22
2013-5-22,90.8,74.0,53.5,57.0,49.9,41.4,91,51,19,29.88,29.70,23,6,23,0.00
2013-5-23,88.4,75.8,64.5,69.5,63.8,50.3,86,68,43,29.95,29.67,34,11,36,0.00
2013-5-24,91.8,77.2,64.9,71.8,65.4,59.0,90,70,37,30.02,29.89,26,10,28,0.00
2013-5-25,87.6,75.7,65.3,68.1,64.1,59.4,87,69,46,30.05,29.83,23,8,23,0.00
2013-5-26,95.7,82.4,70.0,69.6,66.0,61.0,88,61,32,29.92,29.69,29,11,30,0.00
2013-5-27,97.3,83.8,72.3,69.1,66.8,63.9,81,58,36,29.76,29.51,37,15,37,0.00
2013-5-28,83.0,78.5,75.6,71.3,67.7,65.4,82,70,61,29.66,29.48,31,10,33,0.00
2013-5-29,88.0,79.6,74.1,69.6,67.4,64.7,79,67,47,29.62,29.39,41,13,41,0.02
2013-5-30,101.2,86.6,75.5,71.6,60.0,31.3,80,49,9,29.58,29.45,28,10,33,0.00
2013-5-31,105.9,89.6,74.6,70.4,63.2,36.7,76,48,12,29.61,29.37,30,9,30,0.00
2013-6-1,89.4,78.6,68.6,69.0,51.7,41.9,83,44,20,29.95,29.46,37,10,37,0.00
2013-6-2,85.9,72.2,56.2,54.0,49.2,45.3,84,48,26,30.07,29.85,20,5,20,0.00
2013-6-3,96.5,79.9,64.6,60.7,55.9,49.9,66,46,29,29.92,29.62,26,9,27,0.00
2013-6-4,99.8,84.7,69.0,68.0,64.1,56.6,83,52,35,29.76,29.57,31,12,32,0.00
2013-6-5,89.5,80.4,71.4,68.7,65.4,60.3,83,61,48,29.85,29.62,28,10,29,0.00
2013-6-6,81.6,71.9,63.4,66.4,61.9,58.2,93,73,48,29.92,29.78,28,9,29,1.27
2013-6-7,85.8,73.6,60.1,64.2,58.4,54.7,92,63,38,29.96,29.79,15,3,16,0.00
2013-6-8,91.3,78.0,64.1,62.3,57.6,50.2,91,52,29,29.85,29.60,46,10,53,0.04
2013-6-9,93.7,81.3,62.5,69.0,62.5,55.3,93,57,29,29.89,29.77,34,4,53,0.31
2013-6-10,100.3,85.3,68.5,69.3,62.1,51.6,86,51,21,29.85,29.73,22,8,24,0.00
2013-6-11,97.8,86.4,72.3,67.8,60.7,54.8,61,43,27,29.86,29.71,23,8,29,0.00
2013-6-12,98.7,87.1,74.4,68.3,65.9,62.8,78,51,32,29.88,29.73,24,9,25,0.00
2013-6-13,83.8,80.4,75.7,66.6,65.8,64.7,73,61,53,29.86,29.83,10,4,11,0.00
2013-6-14,93.3,86.6,78.8,63.5,61.3,58.4,59,44,33,29.87,29.78,19,6,21,0.00
2013-6-15,87.8,78.8,68.5,72.8,66.9,63.6,92,68,47,29.97,29.76,24,6,25,0.42
2013-6-16,96.7,84.3,70.3,72.9,69.4,66.7,89,63,39,29.93,29.71,18,6,20,0.00
2013-6-17,92.3,80.4,66.4,70.9,66.1,60.4,92,64,40,29.90,29.71,48,6,56,0.08
2013-6-18,89.0,79.5,69.6,68.6,66.0,61.6,90,66,42,29.95,29.82,16,5,17,0.00
2013-6-19,84.8,75.4,69.6,70.9,67.1,62.1,91,77,48,30.00,29.71,30,6,32,0.22
2013-6-20,96.3,83.9,70.7,73.1,67.6,63.4,87,61,36,29.86,29.73,31,10,31,0.00
2013-6-21,96.0,86.7,77.5,72.4,67.5,62.4,71,54,35,29.89,29.75,26,10,27,0.00
2013-6-22,97.0,87.3,77.2,68.9,64.2,60.1,61,47,33,29.84,29.66,31,12,32,0.00
2013-6-23,99.5,88.0,78.4,66.7,60.7,55.1,63,42,24,29.76,29.65,32,13,32,0.00
2013-6-24,96.8,86.6,76.0,67.1,63.3,58.1,63,47,32,29.83,29.67,31,12,32,0.00
2013-6-25,102.3,89.7,78.0,71.8,67.9,60.7,68,50,34,29.77,29.59,30,12,32,0.00
2013-6-26,104.2,92.5,78.9,71.2,66.6,60.6,64,44,29,29.74,29.64,22,9,23,0.00
2013-6-27,106.8,92.9,78.5,69.1,64.7,56.7,66,43,21,29.90,29.69,44,7,45,0.00
2013-6-28,103.8,90.2,76.0,64.3,60.8,56.4,64,40,22,29.90,29.76,24,7,36,0.00
2013-6-29,99.2,86.3,70.9,65.1,59.0,55.9,70,42,26,29.89,29.71,20,5,24,0.01
2013-6-30,93.3,82.3,72.3,63.4,56.2,51.3,70,43,26,29.91,29.79,21,7,21,0.00
2013-7-1,86.8,75.7,61.6,56.1,51.9,46.9,75,46,28,30.05,29.91,25,6,25,0.00
2013-7-2,90.2,75.7,57.2,51.8,46.5,39.2,67,39,18,30.09,29.92,17,3,17,0.00
2013-7-3,92.8,77.5,58.8,50.8,46.8,44.3,68,37,20,30.01,29.82,15,3,15,0.00
2013-7-4,97.0,83.4,69.2,59.9,50.9,47.4,65,35,20,29.91,29.73,23,6,28,0.00
2013-7-5,99.7,86.7,71.0,59.0,54.0,46.2,64,36,18,29.85,29.67,26,8,28,0.00
2013-7-6,100.2,87.6,76.4,60.8,56.4,48.8,53,36,19,29.81,29.68,25,9,29,0.00
2013-7-7,99.4,88.5,76.5,63.3,59.9,56.1,56,39,26,29.87,29.77,18,7,20,0.00
2013-7-8,102.3,89.7,75.4,69.1,64.0,60.6,67,45,27,29.93,29.80,19,6,21,0.00
2013-7-9,102.0,91.2,77.9,68.0,64.2,60.8,66,43,28,29.94,29.79,22,9,24,0.00
2013-7-10,103.3,91.6,77.8,65.6,61.8,59.5,57,38,25,29.92,29.75,19,5,21,0.00
2013-7-11,107.2,91.3,79.9,67.5,62.3,58.7,57,40,22,29.85,29.71,23,4,25,0.00
2013-7-12,104.3,92.7,77.9,68.2,63.1,58.8,69,40,23,29.81,29.72,20,6,23,0.00
2013-7-13,107.0,93.7,79.1,66.6,60.9,53.1,64,37,18,29.86,29.70,19,6,19,0.00
2013-7-14,89.9,76.1,64.5,64.6,61.9,57.8,92,64,42,29.98,29.74,32,9,34,0.32
2013-7-15,76.7,69.1,64.3,66.9,63.4,61.0,92,83,63,30.04,29.94,16,6,17,0.01
2013-7-16,73.9,70.0,67.8,70.6,67.1,65.1,91,91,89,30.16,29.99,18,5,18,2.13
2013-7-17,85.2,74.1,69.7,74.7,70.0,66.6,90,87,64,30.21,30.09,19,4,22,0.11
2013-7-18,90.3,79.4,68.3,72.5,69.0,65.3,90,73,48,30.13,29.93,20,4,22,0.00
2013-7-19,94.7,83.0,69.8,71.9,68.0,63.9,90,64,38,29.97,29.79,18,4,20,0.00
2013-7-20,96.8,85.5,72.3,70.8,67.2,61.6,89,58,33,29.86,29.70,18,5,20,0.00
2013-7-21,97.3,86.8,73.0,70.6,67.5,63.5,87,56,35,29.80,29.68,18,7,20,0.00
2013-7-22,97.6,87.2,76.1,73.7,70.7,68.4,81,60,40,29.81,29.68,17,7,23,0.00
2013-7-23,99.3,89.1,77.0,73.9,71.6,69.7,81,58,40,29.81,29.66,20,7,22,0.00
2013-7-24,97.0,86.2,74.9,72.4,70.2,66.5,81,60,41,29.89,29.70,45,8,45,0.00
2013-7-25,85.4,79.5,70.3,75.9,72.8,67.8,92,80,66,30.00,29.85,22,6,23,0.46
2013-7-26,88.0,80.1,74.4,75.7,70.9,66.1,90,75,49,29.99,29.80,28,7,30,0.23
2013-7-27,90.0,79.2,67.9,71.1,66.2,61.8,91,67,41,29.99,29.81,13,3,15,0.00
2013-7-28,90.0,79.5,67.6,68.2,65.3,59.0,90,64,38,29.89,29.75,19,6,21,0.00
2013-7-29,96.9,86.2,76.2,75.9,71.0,66.7,82,62,44,29.81,29.70,26,9,30,0.00
2013-7-30,99.5,87.7,76.1,74.2,70.5,67.3,78,58,40,29.90,29.76,23,5,23,0.00
2013-7-31,98.8,86.0,75.0,76.3,71.1,55.6,90,65,25,29.98,29.85,18,6,18,0.00
2013-8-1,97.3,84.9,73.5,74.3,70.6,66.5,89,65,38,29.97,29.81,17,4,17,0.00
2013-8-2,104.1,91.5,79.2,73.3,67.1,60.5,80,49,25,29.84,29.67,25,8,25,0.00
2013-8-3,103.5,91.2,79.0,66.1,63.4,59.0,59,41,24,29.85,29.72,22,9,24,0.00
2013-8-4,101.5,90.2,77.9,67.7,65.1,62.1,66,45,28,29.91,29.76,19,7,19,0.00
2013-8-5,103.8,91.4,78.5,69.1,65.0,61.1,69,44,26,29.85,29.65,19,8,21,0.00
2013-8-6,106.5,92.8,76.8,67.8,62.6,57.9,60,39,21,29.74,29.58,23,9,23,0.00
2013-8-7,100.0,89.9,72.6,71.3,66.8,62.6,92,48,33,29.77,29.61,38,6,43,0.03
2013-8-8,94.7,76.7,72.5,71.5,69.7,66.6,90,80,40,29.78,29.65,29,7,32,0.04
2013-8-9,92.3,80.1,68.5,71.7,68.1,65.5,91,69,44,29.97,29.77,20,5,21,0.00
2013-8-10,90.5,79.6,70.2,69.8,67.0,64.4,90,68,44,30.07,29.92,18,6,20,0.00
2013-8-11,99.1,82.8,68.5,71.5,68.2,64.5,92,65,37,30.02,29.85,26,4,26,0.12
2013-8-12,99.3,83.6,72.9,74.0,70.2,63.5,92,68,33,29.96,29.79,26,5,26,0.01
2013-8-13,90.0,80.1,72.4,74.1,70.5,68.6,90,74,51,29.96,29.83,18,5,18,0.00
2013-8-14,89.0,79.5,71.8,71.4,68.1,64.9,90,70,47,30.02,29.87,17,5,20,0.00
2013-8-15,94.8,81.3,70.7,73.3,69.2,64.4,88,68,43,29.96,29.83,17,5,19,0.00
2013-8-16,89.5,76.4,61.7,68.8,65.3,59.5,93,71,45,30.01,29.87,31,5,40,0.39
2013-8-17,87.5,77.1,66.9,68.3,65.4,63.1,90,69,47,30.04,29.90,18,6,18,0.00
2013-8-18,91.8,79.5,67.1,65.2,63.2,59.1,87,60,34,30.02,29.88,19,6,21,0.00
2013-8-19,93.8,82.1,68.7,64.0,62.6,60.5,83,54,35,29.96,29.83,25,7,25,0.00
2013-8-20,97.0,84.7,72.5,65.6,62.7,60.0,72,50,33,29.91,29.82,21,7,23,0.00
2013-8-21,95.3,83.6,68.5,65.9,59.6,56.0,73,46,28,29.98,29.86,21,5,23,0.00
2013-8-22,98.5,86.4,72.6,69.0,63.9,59.1,78,50,29,29.97,29.80,17,5,20,0.00
2013-8-23,100.3,87.6,72.6,67.7,64.6,57.7,75,49,26,29.92,29.78,20,5,21,0.00
2013-8-24,101.4,86.5,72.2,70.5,66.4,59.8,85,55,27,29.97,29.86,22,5,22,0.00
2013-8-25,98.3,86.8,74.0,70.2,66.3,61.0,80,53,32,30.03,29.93,18,5,20,0.00
2013-8-26,95.1,85.4,74.5,69.1,64.7,61.2,71,51,34,30.06,29.93,19,6,23,0.00
2013-8-27,91.0,81.9,68.8,70.1,66.3,61.7,79,60,47,30.00,29.88,20,6,22,0.00
2013-8-28,97.4,85.2,73.1,70.5,66.1,59.2,87,57,31,29.97,29.86,21,7,23,0.00
2013-8-29,100.7,87.8,71.7,63.1,60.6,56.9,70,43,24,29.97,29.83,21,6,25,0.00
2013-8-30,103.7,90.3,72.7,64.0,60.8,56.7,69,40,23,29.90,29.73,19,5,19,0.00
2013-8-31,105.5,91.6,75.3,62.5,58.3,54.5,57,35,20,29.79,29.65,17,5,19,0.00
2013-9-1,105.8,88.6,74.7,69.3,61.7,56.3,61,43,22,29.81,29.67,24,5,28,0.00
2013-9-2,96.8,84.2,71.6,73.1,65.3,57.6,81,56,32,29.92,29.78,16,5,21,0.00
2013-9-3,97.3,81.7,64.1,62.3,56.7,49.0,79,46,21,29.98,29.84,18,5,19,0.00
2013-9-4,98.5,82.6,63.6,64.1,56.0,37.8,79,45,13,30.02,29.89,18,4,20,0.00
2013-9-5,101.0,86.8,72.3,67.4,61.4,54.3,73,46,23,30.02,29.88,13,5,16,0.00
2013-9-6,100.8,87.9,72.1,66.4,62.0,58.7,67,44,27,29.98,29.82,17,4,18,0.00
2013-9-7,101.7,86.9,71.2,64.5,62.2,59.1,73,47,26,29.91,29.77,23,4,23,0.00
2013-9-8,98.5,86.1,70.9,67.5,61.2,55.2,74,46,25,29.87,29.73,21,5,22,0.00
2013-9-9,95.0,84.7,73.3,66.8,63.0,59.0,74,50,33,29.87,29.75,23,8,25,0.00
2013-9-10,93.1,82.5,72.7,70.5,65.8,62.2,78,58,39,29.98,29.83,23,8,26,0.08
2013-9-11,93.2,82.6,71.9,69.0,64.7,59.3,83,57,34,30.03,29.90,19,6,20,0.00
2013-9-12,96.1,82.9,67.9,66.1,61.7,59.0,78,51,30,30.01,29.84,16,3,17,0.00
2013-9-13,89.7,78.6,71.8,71.4,67.6,64.8,83,70,49,29.92,29.80,23,6,25,0.00
2013-9-14,92.6,79.5,71.8,70.1,67.4,64.3,87,68,40,29.91,29.77,19,5,19,0.00
2013-9-15,95.2,84.5,72.7,66.3,64.3,60.9,74,53,36,29.91,29.81,19,6,24,0.00
2013-9-16,92.5,79.7,70.5,69.8,66.9,64.5,93,67,42,30.02,29.87,26,7,28,0.27
2013-9-17,87.5,75.5,69.9,75.0,70.0,67.0,92,84,54,30.00,29.87,20,3,20,0.16
2013-9-18,93.7,83.1,74.7,70.5,65.7,59.5,81,58,33,29.90,29.73,26,8,27,0.00
2013-9-19,86.0,75.6,71.5,72.2,66.6,60.1,91,75,52,29.90,29.77,19,5,20,0.05
2013-9-20,72.0,67.4,59.5,68.9,62.0,55.3,91,83,65,29.99,29.80,23,9,24,0.18
2013-9-21,82.2,67.1,51.7,57.1,51.9,46.5,92,64,31,30.03,29.85,11,2,12,0.00
2013-9-22,84.3,70.0,54.1,55.2,52.2,49.1,90,57,31,29.88,29.71,17,4,20,0.00
2013-9-23,88.5,72.9,56.4,55.3,53.3,51.4,86,54,31,29.76,29.62,26,9,27,0.00
2013-9-24,89.8,75.5,60.6,55.5,49.5,42.9,77,44,20,29.95,29.76,18,5,20,0.00
2013-9-25,94.2,76.2,55.9,61.3,54.4,49.0,83,51,25,29.84,29.62,21,6,23,0.00
2013-9-26,95.5,81.7,70.0,62.5,59.8,53.3,72,50,28,29.72,29.63,28,11,30,0.00
2013-9-27,91.0,79.4,68.9,71.1,64.8,53.3,79,62,44,29.78,29.63,28,11,29,0.00
2013-9-28,80.1,69.3,56.8,72.5,57.5,45.2,93,69,35,30.08,29.68,25,9,26,0.77
2013-9-29,81.0,64.3,50.0,55.6,48.4,37.9,92,63,23,30.09,29.87,10,2,10,0.00
2013-9-30,88.0,71.6,57.4,61.3,54.2,50.2,80,57,35,29.89,29.67,24,8,24,0.00
2013-10-1,89.8,75.6,61.5,66.3,60.1,54.2,80,60,41,29.80,29.71,23,8,25,0.00
2013-10-2,88.7,78.2,68.8,71.5,66.3,62.4,87,68,51,29.83,29.69,30,9,30,0.00
2013-10-3,92.5,80.3,70.2,70.1,67.5,63.8,90,68,42,29.75,29.58,29,11,30,0.00
2013-10-4,90.9,81.3,65.9,69.6,67.2,62.3,92,63,46,29.76,29.60,30,12,32,0.22
2013-10-5,70.2,59.9,49.9,62.8,39.9,33.7,93,50,27,30.10,29.76,34,10,37,0.22
2013-10-6,79.0,59.7,44.8,42.2,37.1,29.9,82,49,18,30.18,30.03,21,5,25,0.00
2013-10-7,83.2,64.4,46.9,48.2,42.5,38.8,81,49,23,30.16,30.01,11,2,12,0.00
2013-10-8,85.3,69.6,53.4,47.7,42.5,36.9,62,39,23,30.03,29.84,20,7,21,0.00
2013-10-9,83.9,71.5,55.7,53.9,48.9,46.0,70,46,29,29.95,29.82,26,9,27,0.00
2013-10-10,85.1,72.9,61.6,63.5,58.3,51.8,79,61,43,29.90,29.68,28,11,29,0.00
2013-10-11,89.8,75.2,63.6,61.8,47.9,32.6,88,46,15,29.78,29.67,23,7,25,0.00
2013-10-12,79.7,66.0,53.6,51.4,47.4,39.1,73,53,35,30.08,29.76,23,6,23,0.00
2013-10-13,73.3,66.6,57.0,66.2,59.3,48.8,89,78,70,30.20,30.03,25,7,26,0.00
2013-10-14,79.0,71.8,67.2,69.9,67.3,64.5,92,86,73,30.06,29.75,17,7,19,0.00
2013-10-15,71.8,59.8,53.2,68.4,46.8,39.1,91,63,46,30.11,29.79,33,10,33,0.00
2013-10-16,58.9,52.1,41.6,44.0,39.0,35.8,81,62,46,30.20,30.08,18,6,19,0.00
2013-10-17,74.8,55.1,35.3,48.1,41.9,32.9,92,65,37,30.11,29.92,16,4,17,0.00
2013-10-18,59.3,51.0,37.8,54.8,46.2,35.6,93,84,63,30.24,29.88,30,7,32,0.07
2013-10-19,68.8,49.6,32.4,43.8,35.5,30.2,94,65,25,30.26,30.03,15,4,15,0.01
2013-10-20,77.0,59.6,43.0,55.0,46.0,37.0,83,63,40,30.03,29.71,24,7,24,0.00
2013-10-21,66.3,55.8,43.5,52.3,43.0,36.0,90,65,35,30.14,29.80,31,10,32,0.00
2013-10-22,80.7,58.4,38.5,43.5,38.6,34.1,85,54,21,30.16,29.99,15,5,22,0.00
2013-10-23,86.0,63.8,41.8,44.1,37.8,32.0,85,46,15,30.09,29.94,23,5,27,0.00
2013-10-24,68.3,56.6,44.6,46.0,42.0,35.1,89,61,38,30.31,30.03,22,6,22,0.00
2013-10-25,68.3,53.9,37.7,51.5,42.9,33.9,87,68,48,30.41,30.14,15,5,19,0.00
2013-10-26,76.3,63.3,54.8,62.1,54.9,49.5,91,76,45,30.15,29.98,22,6,22,0.02
2013-10-27,71.3,58.2,42.5,51.9,42.4,33.4,83,59,27,30.13,29.92,13,4,15,0.00
2013-10-28,77.0,64.3,54.3,66.3,59.8,51.7,93,86,67,30.00,29.84,22,8,22,0.00
2013-10-29,82.5,74.6,67.3,68.3,66.3,64.2,90,76,59,29.92,29.78,24,11,26,0.00
2013-10-30,81.0,73.6,61.8,69.3,67.2,59.8,93,81,59,29.85,29.62,33,11,40,0.52
2013-10-31,69.6,61.3,53.4,60.5,46.8,38.4,93,61,34,29.82,29.56,41,9,41,0.08
2013-11-1,72.5,57.6,41.3,49.0,41.2,33.4,93,58,25,30.16,29.74,28,8,28,0.00
2013-11-2,68.0,53.3,38.8,38.4,33.9,30.3,78,51,25,30.35,30.14,13,3,13,0.00
2013-11-3,66.0,56.1,46.1,44.8,37.1,33.7,65,50,34,30.14,29.84,30,11,32,0.00
2013-11-4,75.2,61.7,50.4,56.7,49.6,43.0,90,66,45,29.95,29.85,21,8,25,0.00
2013-11-5,75.0,63.5,49.2,64.3,59.1,45.6,94,86,68,30.04,29.77,26,10,30,0.19
2013-11-6,57.4,48.0,38.9,46.1,37.4,32.8,87,68,40,30.40,30.04,29,8,29,0.01
2013-11-7,68.0,49.5,32.3,40.0,33.6,28.4,94,60,24,30.53,30.34,13,4,14,0.00
2013-11-8,67.3,53.9,40.1,41.7,33.9,24.6,77,51,21,30.34,30.01,31,12,33,0.00
2013-11-9,69.3,56.2,45.7,51.8,45.4,39.8,91,69,46,30.17,30.00,17,6,19,0.00
2013-11-10,60.7,54.2,48.9,54.3,51.1,47.0,93,90,79,30.31,30.17,12,4,12,0.00
2013-11-11,70.5,59.1,45.2,58.3,54.1,39.9,93,84,63,30.41,30.11,34,8,41,0.00
2013-11-12,45.2,37.5,23.7,40.3,20.9,12.5,83,54,29,30.80,30.41,32,12,35,0.00
2013-11-13,53.9,36.1,16.5,22.6,14.9,9.8,88,49,17,30.75,30.32,17,6,17,0.00
2013-11-14,38.4,36.6,35.1,23.4,21.6,20.2,62,54,48,30.32,30.22,15,8,15,0.00
2013-11-16,85.2,77.0,65.5,56.6,51.2,44.3,72,42,25,29.65,29.44,37,12,38,0.00
2013-11-17,76.8,64.9,52.3,56.0,42.2,27.8,85,48,22,30.04,29.53,21,8,24,0.00
2013-11-18,65.8,54.4,42.2,32.7,27.1,16.9,59,37,16,30.24,30.04,16,3,16,0.00
2013-11-19,67.8,59.2,51.5,43.9,39.1,32.6,56,47,40,30.14,29.84,28,10,28,0.00
2013-11-20,76.8,65.4,55.9,60.0,53.5,41.5,83,66,48,29.86,29.70,25,10,28,0.00
2013-11-21,75.6,54.8,32.2,63.2,47.7,23.4,89,77,52,30.42,29.79,37,12,38,0.00
2013-11-22,32.2,29.4,27.1,28.5,24.9,20.0,93,84,66,30.63,30.41,33,13,35,0.00
2013-11-23,37.4,33.9,30.5,27.6,24.5,19.0,83,69,51,30.72,30.61,27,12,27,0.00
2013-11-24,33.6,28.5,25.7,26.9,24.9,23.2,94,87,67,30.73,30.36,20,6,20,0.00
2013-11-25,37.1,32.8,29.2,33.4,30.4,26.6,94,91,83,30.36,30.21,12,4,12,0.03
2013-11-26,48.0,37.6,28.6,31.5,28.9,25.3,91,72,48,30.49,30.28,24,7,26,0.00
2013-11-27,46.2,34.0,21.6,26.9,23.7,19.1,91,68,40,30.53,30.32,16,4,16,0.00
2013-11-28,58.6,43.8,31.0,35.1,29.9,26.5,89,61,33,30.39,30.28,16,6,16,0.00
2013-11-29,60.7,46.1,31.3,38.1,33.0,27.0,85,62,37,30.43,30.24,23,7,24,0.00
2013-11-30,68.4,51.7,39.7,47.3,42.4,36.3,90,73,44,30.25,30.06,15,5,16,0.00
2013-12-1,63.2,49.0,39.4,48.0,42.0,36.4,93,78,50,30.09,29.91,12,2,13,0.00
2013-12-2,71.0,49.5,30.1,45.2,36.7,28.1,94,67,28,29.91,29.60,9,2,10,0.00
2013-12-3,81.2,56.9,35.5,40.2,32.8,25.8,85,47,14,29.60,29.44,20,5,20,0.00
2013-12-4,50.7,42.6,31.4,35.0,29.7,18.5,83,61,44,30.08,29.47,25,9,26,0.00
2013-12-5,31.4,24.1,19.3,18.8,14.0,9.0,90,67,47,30.36,30.08,31,13,35,0.00
2013-12-6,23.7,17.1,6.2,16.3,11.6,0.8,91,79,64,30.68,30.33,21,8,22,0.00
2013-12-7,18.6,11.9,2.2,12.0,4.9,-2.4,83,73,66,30.74,30.36,20,5,22,0.00
2013-12-8,36.4,25.1,16.6,27.9,20.1,11.6,90,81,68,30.37,30.02,18,6,20,0.00
2013-12-9,25.8,22.4,11.3,22.1,17.5,7.9,92,82,70,30.53,30.21,21,8,21,0.00
2013-12-10,41.1,23.9,5.7,28.9,17.5,2.7,92,77,59,30.55,30.26,21,6,22,0.00
2013-12-11,37.2,28.9,18.0,28.2,23.5,15.8,92,81,66,30.68,30.27,28,8,32,0.00
2013-12-12,40.4,32.4,19.7,34.5,28.0,17.2,93,84,72,30.68,30.24,16,5,17,0.01
2013-12-13,58.3,45.6,38.7,44.9,39.2,33.6,93,79,59,30.25,29.70,27,9,27,0.00
2013-12-14,49.7,38.0,29.4,35.7,27.6,23.7,85,68,37,30.35,29.84,29,10,30,0.00
2013-12-15,62.4,43.0,28.6,36.3,29.6,24.5,87,64,30,30.35,30.17,16,4,16,0.00
2013-12-16,68.6,46.1,27.4,37.1,30.2,23.7,88,59,25,30.21,30.11,14,2,15,0.00
2013-12-17,68.7,46.0,29.5,37.3,31.5,25.4,87,61,26,30.33,30.19,10,2,11,0.00
2013-12-18,70.2,49.1,28.9,43.9,35.8,26.3,91,64,31,30.27,29.84,24,7,27,0.00
2013-12-19,71.4,59.0,51.5,51.3,48.4,43.2,84,69,42,29.84,29.58,28,12,28,0.00
2013-12-20,55.6,35.4,30.0,49.8,29.2,19.9,94,78,62,29.99,29.64,30,8,33,0.00
2013-12-21,33.2,31.8,30.2,31.7,30.2,27.4,95,94,89,29.91,29.65,0,0,0,0.00
2013-12-22,37.9,28.5,24.5,30.0,25.6,22.8,93,89,73,30.42,29.90,5,1,10,0.02
2013-12-23,46.4,31.5,24.7,34.3,27.2,22.5,93,85,61,30.61,30.41,19,5,19,0.06
2013-12-24,53.0,35.2,24.2,41.6,30.4,22.7,95,84,63,30.60,30.13,20,7,22,0.00
2013-12-25,49.4,37.1,28.8,35.8,31.3,26.2,94,81,54,30.48,30.19,21,7,23,0.00
2013-12-26,55.9,38.0,23.1,35.5,27.7,20.8,92,70,35,30.48,30.31,13,3,14,0.00
2013-12-27,59.7,41.1,26.9,37.2,28.1,23.3,89,64,27,30.44,30.30,16,3,17,0.00
2013-12-28,56.1,43.5,30.1,44.8,36.3,26.1,90,76,56,30.30,29.90,21,6,22,0.00
2013-12-29,43.3,31.4,21.7,40.6,24.3,15.2,94,75,60,30.38,29.89,36,11,38,0.00
2013-12-30,46.4,29.1,15.8,24.8,18.9,12.8,90,68,41,30.46,30.31,12,2,13,0.00
2013-12-31,56.6,39.0,20.7,32.5,26.9,17.7,90,65,36,30.46,30.07,23,7,24,0.00
2014-1-1,59.5,42.1,26.5,35.6,29.7,19.7,86,64,35,30.38,29.88,30,11,31,0.00
2014-1-2,32.5,25.7,20.4,21.3,18.3,15.6,82,73,62,30.59,30.38,27,7,27,0.00